When you browse on this site, cookies collect data to enhance your experience and personalize the content and advertising you see.
Visit our Privacy Policy to learn more. By continuing to use the site, you agree to this use of cookies and data.
  • In Hungary
  • List of Countries
  • For 7 days
  • Water Temperature
  • Weather Map
  • News
  • Weather Widgets
  • user-avatar
    Login

    Hourly Weather Barroquinha

    Today, 15 November, Friday

    Time Temperature Precipitation Wind Pressure Humidity
    00:00 +26°C° 0 mm 3 mps 754 mmHg 82%
    01:00 +26°C° 0 mm 3 mps 754 mmHg 82%
    02:00 +26°C° 0 mm 3 mps 754 mmHg 83%
    03:00 +26°C° 0 mm 4 mps 753 mmHg 83%
    04:00 +26°C° 0 mm 3 mps 754 mmHg 81%
    05:00 +27°C° 0 mm 3 mps 755 mmHg 78%
    06:00 +28°C° 0 mm 3 mps 755 mmHg 76%
    07:00 +29°C° 0.1 mm 4 mps 756 mmHg 70%
    08:00 +30°C° 0.1 mm 4 mps 756 mmHg 64%
    09:00 +32°C° 0.1 mm 4 mps 756 mmHg 58%
    10:00 +34°C° 0 mm 4 mps 756 mmHg 52%
    11:00 +35°C° 0 mm 3 mps 755 mmHg 45%
    12:00 +37°C° 0 mm 3 mps 755 mmHg 39%
    13:00 +37°C° 0 mm 4 mps 754 mmHg 40%
    14:00 +37°C° 0 mm 5 mps 753 mmHg 41%
    15:00 +37°C° 0 mm 5 mps 752 mmHg 42%
    16:00 +35°C° 0 mm 5 mps 752 mmHg 50%
    17:00 +32°C° 0 mm 5 mps 752 mmHg 59%
    18:00 +29°C° 0 mm 5 mps 752 mmHg 68%
    19:00 +28°C° 0 mm 4 mps 753 mmHg 71%
    20:00 +28°C° 0 mm 4 mps 753 mmHg 75%
    21:00 +27°C° 0 mm 3 mps 754 mmHg 78%
    22:00 +26°C° 0 mm 3 mps 754 mmHg 82%
    23:00 +26°C° 0 mm 3 mps 754 mmHg 85%

    Tomorrow, 16 November, Saturday

    Time Temperature Precipitation Wind Pressure Humidity
    00:00 +26°C° 0 mm 3 mps 754 mmHg 89%
    01:00 +25°C° 0 mm 3 mps 753 mmHg 89%
    02:00 +25°C° 0 mm 3 mps 753 mmHg 90%
    03:00 +25°C° 0 mm 3 mps 752 mmHg 90%
    04:00 +26°C° 0 mm 3 mps 753 mmHg 86%
    05:00 +27°C° 0 mm 4 mps 753 mmHg 81%
    06:00 +27°C° 0 mm 4 mps 753 mmHg 77%
    07:00 +29°C° 0 mm 4 mps 754 mmHg 69%
    08:00 +32°C° 0 mm 4 mps 754 mmHg 61%
    09:00 +33°C° 0 mm 4 mps 755 mmHg 53%
    10:00 +35°C° 0 mm 5 mps 754 mmHg 47%
    11:00 +37°C° 0 mm 5 mps 753 mmHg 42%
    12:00 +40°C° 0 mm 5 mps 753 mmHg 36%
    13:00 +39°C° 0 mm 5 mps 752 mmHg 40%
    14:00 +38°C° 0 mm 6 mps 752 mmHg 43%
    15:00 +35°C° 0 mm 6 mps 751 mmHg 47%
    16:00 +34°C° 0 mm 6 mps 751 mmHg 54%
    17:00 +32°C° 0 mm 5 mps 751 mmHg 60%
    18:00 +29°C° 0 mm 5 mps 752 mmHg 67%
    19:00 +29°C° 0 mm 4 mps 752 mmHg 71%
    20:00 +28°C° 0 mm 4 mps 753 mmHg 76%
    21:00 +27°C° 0 mm 3 mps 753 mmHg 80%
    22:00 +27°C° 0 mm 3 mps 753 mmHg 82%
    23:00 +26°C° 0 mm 3 mps 753 mmHg 84%

    Day after tomorrow, 17 November, Sunday

    Time Temperature Precipitation Wind Pressure Humidity
    00:00 +26°C° 0 mm 3 mps 752 mmHg 87%
    01:00 +26°C° 0 mm 3 mps 752 mmHg 87%
    02:00 +26°C° 0 mm 3 mps 752 mmHg 87%
    03:00 +26°C° 0 mm 3 mps 752 mmHg 87%
    04:00 +26°C° 0 mm 3 mps 752 mmHg 87%
    05:00 +26°C° 0 mm 3 mps 753 mmHg 87%
    06:00 +26°C° 0 mm 3 mps 753 mmHg 87%
    07:00 +28°C° 0 mm 4 mps 754 mmHg 75%
    08:00 +32°C° 0 mm 4 mps 754 mmHg 63%
    09:00 +34°C° 0 mm 5 mps 755 mmHg 51%
    10:00 +36°C° 0 mm 5 mps 754 mmHg 47%
    11:00 +37°C° 0 mm 5 mps 754 mmHg 42%
    12:00 +39°C° 0 mm 5 mps 753 mmHg 38%
    13:00 +39°C° 0 mm 6 mps 752 mmHg 41%
    14:00 +38°C° 0 mm 6 mps 752 mmHg 43%
    15:00 +36°C° 0 mm 7 mps 751 mmHg 45%
    16:00 +34°C° 0 mm 7 mps 751 mmHg 52%
    17:00 +33°C° 0 mm 6 mps 751 mmHg 58%
    18:00 +30°C° 0 mm 6 mps 752 mmHg 64%
    19:00 +29°C° 0 mm 5 mps 752 mmHg 69%
    20:00 +28°C° 0 mm 5 mps 753 mmHg 73%
    21:00 +27°C° 0 mm 4 mps 753 mmHg 77%
    22:00 +27°C° 0 mm 4 mps 753 mmHg 79%
    23:00 +27°C° 0 mm 4 mps 753 mmHg 82%

    18 November, Monday

    Time Temperature Precipitation Wind Pressure Humidity
    00:00 +26°C° 0 mm 4 mps 753 mmHg 84%
    01:00 +26°C° 0 mm 4 mps 752 mmHg 86%
    02:00 +26°C° 0 mm 4 mps 752 mmHg 88%
    03:00 +25°C° 0 mm 4 mps 752 mmHg 90%
    04:00 +25°C° 0 mm 4 mps 752 mmHg 89%
    05:00 +26°C° 0 mm 4 mps 753 mmHg 88%
    06:00 +26°C° 0 mm 4 mps 753 mmHg 87%
    07:00 +29°C° 0 mm 5 mps 754 mmHg 74%
    08:00 +32°C° 0 mm 5 mps 754 mmHg 62%
    09:00 +35°C° 0 mm 5 mps 755 mmHg 49%
    10:00 +36°C° 0 mm 6 mps 754 mmHg 45%
    11:00 +39°C° 0 mm 6 mps 754 mmHg 40%
    12:00 +40°C° 0 mm 6 mps 754 mmHg 36%
    13:00 +39°C° 0 mm 6 mps 753 mmHg 38%
    14:00 +39°C° 0 mm 7 mps 752 mmHg 39%
    15:00 +38°C° 0 mm 7 mps 752 mmHg 40%
    16:00 +35°C° 0 mm 7 mps 752 mmHg 46%
    17:00 +34°C° 0 mm 6 mps 752 mmHg 52%
    18:00 +32°C° 0 mm 6 mps 752 mmHg 58%
    19:00 +30°C° 0 mm 5 mps 753 mmHg 63%
    20:00 +29°C° 0 mm 5 mps 753 mmHg 67%
    21:00 +28°C° 0 mm 4 mps 754 mmHg 72%
    22:00 +27°C° 0 mm 4 mps 754 mmHg 75%
    23:00 +27°C° 0 mm 4 mps 754 mmHg 78%

    19 November, Tuesday

    Time Temperature Precipitation Wind Pressure Humidity
    00:00 +26°C° 0 mm 3 mps 754 mmHg 81%
    01:00 +26°C° 0 mm 3 mps 754 mmHg 83%
    02:00 +25°C° 0 mm 3 mps 754 mmHg 85%
    03:00 +25°C° 0 mm 3 mps 754 mmHg 87%
    04:00 +26°C° 0 mm 4 mps 754 mmHg 84%
    05:00 +27°C° 0 mm 4 mps 754 mmHg 81%
    06:00 +28°C° 0 mm 4 mps 755 mmHg 77%
    07:00 +30°C° 0 mm 4 mps 755 mmHg 69%
    08:00 +33°C° 0 mm 4 mps 755 mmHg 61%
    09:00 +34°C° 0 mm 5 mps 756 mmHg 53%
    10:00 +36°C° 0 mm 5 mps 755 mmHg 47%
    11:00 +39°C° 0 mm 5 mps 755 mmHg 41%
    12:00 +41°C° 0 mm 5 mps 754 mmHg 35%
    13:00 +40°C° 0 mm 5 mps 753 mmHg 39%
    14:00 +38°C° 0 mm 6 mps 753 mmHg 42%
    15:00 +36°C° 0 mm 6 mps 752 mmHg 46%
    16:00 +34°C° 0.2 mm 6 mps 752 mmHg 53%
    17:00 +33°C° 0.2 mm 5 mps 752 mmHg 60%
    18:00 +30°C° 0.2 mm 5 mps 753 mmHg 68%
    19:00 +29°C° 0.2 mm 4 mps 753 mmHg 72%
    20:00 +28°C° 0.2 mm 4 mps 754 mmHg 76%
    21:00 +27°C° 0.2 mm 3 mps 755 mmHg 80%
    22:00 +27°C° 0 mm 3 mps 755 mmHg 83%
    23:00 +26°C° 0 mm 2 mps 754 mmHg 86%

    20 November, Wednesday

    Time Temperature Precipitation Wind Pressure Humidity
    00:00 +26°C° 0 mm 2 mps 754 mmHg 89%
    01:00 +25°C° 0 mm 2 mps 754 mmHg 89%
    02:00 +25°C° 0 mm 2 mps 754 mmHg 90%
    03:00 +25°C° 0 mm 2 mps 754 mmHg 91%
    04:00 +26°C° 0 mm 2 mps 754 mmHg 88%
    05:00 +26°C° 0 mm 3 mps 754 mmHg 85%
    06:00 +27°C° 0 mm 3 mps 755 mmHg 83%
    07:00 +29°C° 0 mm 3 mps 755 mmHg 73%
    08:00 +31°C° 0 mm 3 mps 756 mmHg 63%
    09:00 +34°C° 0 mm 3 mps 756 mmHg 53%
    10:00 +35°C° 0 mm 3 mps 755 mmHg 48%
    11:00 +37°C° 0 mm 4 mps 755 mmHg 42%
    12:00 +38°C° 0 mm 4 mps 754 mmHg 37%
    13:00 +39°C° 0 mm 5 mps 754 mmHg 40%
    14:00 +37°C° 0 mm 5 mps 753 mmHg 42%
    15:00 +36°C° 0 mm 6 mps 752 mmHg 45%
    16:00 +34°C° 0.1 mm 5 mps 752 mmHg 53%
    17:00 +32°C° 0.1 mm 5 mps 753 mmHg 62%
    18:00 +29°C° 0.1 mm 4 mps 753 mmHg 71%
    19:00 +28°C° 0 mm 4 mps 753 mmHg 73%
    20:00 +28°C° 0 mm 4 mps 754 mmHg 76%
    21:00 +27°C° 0 mm 3 mps 754 mmHg 79%
    22:00 +27°C° 0 mm 3 mps 754 mmHg 81%
    23:00 +26°C° 0 mm 3 mps 754 mmHg 84%
    Show more